| time (UTC) | temp F | wind direction | speed MPH | gust MPH | rain 1hr in | rain 24hr in | rain mn in | humidity % | barometer mb |
| 20260505041713 | 58 | 183 | 3.0 | 8.0 | 0.00 | 0.00 | 0.00 | 57 | 1008.3 |
| 20260505040712 | 59 | 227 | 3.0 | 7.0 | 0.00 | 0.00 | 0.00 | 57 | 1008.2 |
| 20260505040211 | 59 | 139 | 3.0 | 7.0 | 0.00 | 0.00 | 0.00 | 56 | 1008.2 |
| 20260505035710 | 59 | 229 | 4.0 | 8.0 | 0.00 | 0.00 | 0.00 | 56 | 1008.2 |
| 20260505035212 | 59 | 158 | 4.0 | 8.0 | 0.00 | 0.00 | 0.00 | 55 | 1008.2 |
| 20260505034712 | 59 | 219 | 3.0 | 7.0 | 0.00 | 0.00 | 0.00 | 55 | 1008.1 |
| 20260505034213 | 59 | 167 | 3.0 | 8.0 | 0.00 | 0.00 | 0.00 | 55 | 1008.2 |
| 20260505033709 | 60 | 172 | 4.0 | 9.0 | 0.00 | 0.00 | 0.00 | 54 | 1008.2 |
| 20260505033208 | 60 | 176 | 4.0 | 9.0 | 0.00 | 0.00 | 0.00 | 54 | 1008.1 |
| 20260505032208 | 60 | 205 | 3.0 | 7.0 | 0.00 | 0.00 | 0.00 | 54 | 1008.0 |
| 20260505031708 | 60 | 136 | 3.0 | 9.0 | 0.00 | 0.00 | 0.00 | 53 | 1008.1 |
| 20260505030211 | 60 | 185 | 4.0 | 9.0 | 0.00 | 0.00 | 0.00 | 52 | 1008.0 |
| 20260505025712 | 61 | 188 | 4.0 | 9.0 | 0.00 | 0.00 | 0.00 | 52 | 1008.0 |
| 20260505025207 | 61 | 190 | 3.0 | 8.0 | 0.00 | 0.00 | 0.00 | 51 | 1008.0 |
| 20260505024707 | 61 | 172 | 3.0 | 10.0 | 0.00 | 0.00 | 0.00 | 51 | 1008.0 |
| 20260505024208 | 61 | 165 | 3.0 | 10.0 | 0.00 | 0.00 | 0.00 | 51 | 1007.9 |
| 20260505023706 | 61 | 239 | 3.0 | 8.0 | 0.00 | 0.00 | 0.00 | 51 | 1008.1 |
| 20260505023205 | 61 | 246 | 3.0 | 8.0 | 0.00 | 0.00 | 0.00 | 51 | 1008.1 |
| 20260505022705 | 61 | 160 | 4.0 | 10.0 | 0.00 | 0.00 | 0.00 | 50 | 1008.1 |
| 20260505022205 | 61 | 155 | 4.0 | 10.0 | 0.00 | 0.00 | 0.00 | 50 | 1008.1 |
| 20260505021709 | 62 | 205 | 4.0 | 11.0 | 0.00 | 0.00 | 0.00 | 50 | 1008.0 |
| 20260505021206 | 62 | 191 | 3.0 | 11.0 | 0.00 | 0.00 | 0.00 | 49 | 1008.0 |
| 20260505020703 | 62 | 153 | 2.0 | 5.0 | 0.00 | 0.00 | 0.00 | 49 | 1008.1 |
| 20260505014701 | 63 | 151 | 3.0 | 10.0 | 0.00 | 0.00 | 0.00 | 48 | 1007.9 |
| 20260505014200 | 63 | 70 | 3.0 | 10.0 | 0.00 | 0.00 | 0.00 | 47 | 1007.8 |
| 20260505013706 | 63 | 211 | 4.0 | 8.0 | 0.00 | 0.00 | 0.00 | 47 | 1007.7 |
| 20260505013201 | 63 | 182 | 4.0 | 9.0 | 0.00 | 0.00 | 0.00 | 47 | 1007.6 |
| 20260505012157 | 64 | 160 | 5.0 | 9.0 | 0.00 | 0.00 | 0.00 | 46 | 1007.4 |
| 20260505011657 | 64 | 198 | 4.0 | 9.0 | 0.00 | 0.00 | 0.00 | 46 | 1007.3 |
| 20260505011158 | 64 | 186 | 4.0 | 12.0 | 0.00 | 0.00 | 0.00 | 45 | 1007.2 |
| 20260505010705 | 64 | 210 | 4.0 | 12.0 | 0.00 | 0.00 | 0.00 | 45 | 1007.1 |
| 20260505010157 | 64 | 153 | 4.0 | 13.0 | 0.00 | 0.00 | 0.00 | 44 | 1006.9 |
| 20260505004656 | 65 | 213 | 6.0 | 13.0 | 0.00 | 0.00 | 0.00 | 43 | 1006.6 |
| 20260505004157 | 65 | 257 | 6.0 | 12.0 | 0.00 | 0.00 | 0.00 | 42 | 1006.4 |
| 20260505003656 | 66 | 207 | 6.0 | 14.0 | 0.00 | 0.00 | 0.00 | 42 | 1006.3 |
| 20260505003153 | 66 | 226 | 6.0 | 14.0 | 0.00 | 0.00 | 0.00 | 41 | 1006.2 |
| 20260505002653 | 66 | 125 | 5.0 | 13.0 | 0.00 | 0.00 | 0.00 | 41 | 1006.0 |
| 20260505001653 | 67 | 184 | 3.0 | 18.0 | 0.00 | 0.00 | 0.00 | 38 | 1005.6 |
| 20260505000653 | 68 | 224 | 1.0 | 7.0 | 0.00 | 0.00 | 0.00 | 34 | 1005.2 |
| 20260505000154 | 68 | 211 | 0.0 | 3.0 | 0.00 | 0.00 | 0.00 | 34 | 1005.2 |
| 20260504235653 | 68 | 225 | 1.0 | 4.0 | 0.00 | 0.00 | 0.00 | 34 | 1005.1 |
| 20260504235149 | 69 | 226 | 1.0 | 5.0 | 0.00 | 0.00 | 0.00 | 34 | 1005.1 |
| 20260504234648 | 69 | 266 | 1.0 | 5.0 | 0.00 | 0.00 | 0.00 | 34 | 1005.0 |
| 20260504234148 | 69 | 204 | 1.0 | 4.0 | 0.00 | 0.00 | 0.00 | 33 | 1005.0 |
| 20260504233149 | 70 | 161 | 2.0 | 10.0 | 0.00 | 0.00 | 0.00 | 33 | 1004.8 |
| 20260504231649 | 70 | 165 | 3.0 | 10.0 | 0.00 | 0.00 | 0.00 | 32 | 1004.7 |
| 20260504231151 | 70 | 222 | 1.0 | 7.0 | 0.00 | 0.00 | 0.00 | 32 | 1004.6 |
| 20260504230651 | 70 | 214 | 1.0 | 5.0 | 0.00 | 0.00 | 0.00 | 32 | 1004.5 |
| 20260504225649 | 71 | 221 | 3.0 | 10.0 | 0.00 | 0.00 | 0.00 | 31 | 1004.4 |
| 20260504225149 | 71 | 244 | 4.0 | 10.0 | 0.00 | 0.00 | 0.00 | 31 | 1004.4 |
| 20260504224650 | 71 | 206 | 4.0 | 10.0 | 0.00 | 0.00 | 0.00 | 31 | 1004.3 |
| 20260504224150 | 71 | 177 | 4.0 | 9.0 | 0.00 | 0.00 | 0.00 | 30 | 1004.3 |
| 20260504223650 | 72 | 229 | 4.0 | 10.0 | 0.00 | 0.00 | 0.00 | 30 | 1004.3 |
| 20260504223150 | 72 | 183 | 4.0 | 13.0 | 0.00 | 0.00 | 0.00 | 30 | 1004.2 |
| 20260504222649 | 72 | 221 | 5.0 | 14.0 | 0.00 | 0.00 | 0.00 | 29 | 1004.2 |
| 20260504222149 | 72 | 236 | 5.0 | 14.0 | 0.00 | 0.00 | 0.00 | 29 | 1004.2 |
| 20260504221702 | 72 | 238 | 4.0 | 13.0 | 0.00 | 0.00 | 0.00 | 29 | 1004.2 |
| 20260504221145 | 72 | 264 | 5.0 | 13.0 | 0.00 | 0.00 | 0.00 | 29 | 1004.2 |
| 20260504220647 | 72 | 167 | 4.0 | 13.0 | 0.00 | 0.00 | 0.00 | 29 | 1004.2 |
| 20260504220154 | 72 | 219 | 4.0 | 11.0 | 0.00 | 0.00 | 0.00 | 30 | 1004.2 |
| 20260504215635 | 72 | 210 | 5.0 | 11.0 | 0.00 | 0.00 | 0.00 | 29 | 1004.1 |
| 20260504215130 | 72 | 221 | 5.0 | 11.0 | 0.00 | 0.00 | 0.00 | 29 | 1004.0 |
| 20260504214118 | 72 | 215 | 5.0 | 11.0 | 0.00 | 0.00 | 0.00 | 29 | 1004.1 |
| 20260504213612 | 72 | 212 | 5.0 | 12.0 | 0.00 | 0.00 | 0.00 | 29 | 1004.2 |
| 20260504213104 | 72 | 293 | 6.0 | 19.0 | 0.00 | 0.00 | 0.00 | 29 | 1004.1 |
| 20260504212604 | 72 | 209 | 7.0 | 19.0 | 0.00 | 0.00 | 0.00 | 29 | 1004.1 |
| 20260504212106 | 72 | 174 | 5.0 | 19.0 | 0.00 | 0.00 | 0.00 | 30 | 1004.0 |
| 20260504211602 | 72 | 176 | 4.0 | 10.0 | 0.00 | 0.00 | 0.00 | 30 | 1004.1 |
| 20260504211104 | 72 | 226 | 5.0 | 16.0 | 0.00 | 0.00 | 0.00 | 29 | 1004.1 |
| 20260504210615 | 72 | 190 | 5.0 | 16.0 | 0.00 | 0.00 | 0.00 | 29 | 1004.1 |
| 20260504210115 | 72 | 165 | 5.0 | 14.0 | 0.00 | 0.00 | 0.00 | 28 | 1004.1 |
| 20260504205603 | 72 | 272 | 6.0 | 15.0 | 0.00 | 0.00 | 0.00 | 28 | 1004.1 |
| 20260504204605 | 72 | 224 | 6.0 | 14.0 | 0.00 | 0.00 | 0.00 | 29 | 1004.2 |
| 20260504204102 | 72 | 179 | 6.0 | 14.0 | 0.00 | 0.00 | 0.00 | 28 | 1004.2 |
| 20260504203605 | 72 | 252 | 5.0 | 14.0 | 0.00 | 0.00 | 0.00 | 28 | 1004.2 |
| 20260504202608 | 73 | 239 | 5.0 | 12.0 | 0.00 | 0.00 | 0.00 | 27 | 1004.1 |
| 20260504202106 | 73 | 200 | 4.0 | 12.0 | 0.00 | 0.00 | 0.00 | 28 | 1004.2 |
| 20260504201606 | 73 | 221 | 5.0 | 13.0 | 0.00 | 0.00 | 0.00 | 28 | 1004.1 |
| 20260504201056 | 73 | 228 | 7.0 | 16.0 | 0.00 | 0.00 | 0.00 | 27 | 1004.1 |
| 20260504200548 | 73 | 211 | 5.0 | 16.0 | 0.00 | 0.00 | 0.00 | 27 | 1004.2 |
| 20260504195536 | 72 | 275 | 6.0 | 17.0 | 0.00 | 0.00 | 0.00 | 28 | 1004.2 |
| 20260504195029 | 73 | 207 | 7.0 | 17.0 | 0.00 | 0.00 | 0.00 | 27 | 1004.2 |
| 20260504194524 | 73 | 214 | 6.0 | 15.0 | 0.00 | 0.00 | 0.00 | 27 | 1004.1 |
| 20260504194017 | 73 | 200 | 6.0 | 14.0 | 0.00 | 0.00 | 0.00 | 27 | 1004.2 |
| 20260504192500 | 73 | 168 | 6.0 | 18.0 | 0.00 | 0.00 | 0.00 | 27 | 1004.2 |
| 20260504191954 | 73 | 182 | 6.0 | 16.0 | 0.00 | 0.00 | 0.00 | 27 | 1004.2 |
| 20260504190942 | 72 | 210 | 6.0 | 24.0 | 0.00 | 0.00 | 0.00 | 27 | 1004.2 |
| 20260504190440 | 72 | 219 | 7.0 | 24.0 | 0.00 | 0.00 | 0.00 | 28 | 1004.4 |
| 20260504185937 | 72 | 275 | 7.0 | 19.0 | 0.00 | 0.00 | 0.00 | 27 | 1004.5 |
| 20260504185433 | 72 | 262 | 8.0 | 15.0 | 0.00 | 0.00 | 0.00 | 27 | 1004.4 |
| 20260504184932 | 72 | 274 | 8.0 | 15.0 | 0.00 | 0.00 | 0.00 | 27 | 1004.6 |
| 20260504183932 | 73 | 207 | 6.0 | 14.0 | 0.00 | 0.00 | 0.00 | 27 | 1004.6 |
| 20260504182931 | 72 | 206 | 5.0 | 15.0 | 0.00 | 0.00 | 0.00 | 28 | 1004.8 |
| 20260504181433 | 71 | 150 | 6.0 | 13.0 | 0.00 | 0.00 | 0.00 | 28 | 1004.7 |
| 20260504180930 | 71 | 207 | 6.0 | 14.0 | 0.00 | 0.00 | 0.00 | 29 | 1004.7 |
| 20260504180427 | 71 | 240 | 7.0 | 17.0 | 0.00 | 0.00 | 0.00 | 29 | 1004.9 |
| 20260504175929 | 71 | 243 | 7.0 | 17.0 | 0.00 | 0.00 | 0.00 | 28 | 1004.9 |
| 20260504175429 | 71 | 245 | 6.0 | 17.0 | 0.00 | 0.00 | 0.00 | 28 | 1005.0 |
| 20260504174429 | 70 | 226 | 7.0 | 21.0 | 0.00 | 0.00 | 0.00 | 29 | 1004.9 |
| 20260504173921 | 70 | 315 | 7.0 | 21.0 | 0.00 | 0.00 | 0.00 | 29 | 1005.0 |
| 20260504173423 | 70 | 274 | 7.0 | 14.0 | 0.00 | 0.00 | 0.00 | 28 | 1005.1 |
| 20260504172920 | 70 | 273 | 8.0 | 16.0 | 0.00 | 0.00 | 0.00 | 28 | 1005.2 |
| 20260504172421 | 69 | 233 | 9.0 | 18.0 | 0.00 | 0.00 | 0.00 | 29 | 1005.1 |
| 20260504171918 | 69 | 236 | 8.0 | 18.0 | 0.00 | 0.00 | 0.00 | 30 | 1005.2 |
| 20260504170918 | 69 | 219 | 9.0 | 23.0 | 0.00 | 0.00 | 0.00 | 30 | 1005.3 |
| 20260504160407 | 68 | 255 | 8.0 | 17.0 | 0.00 | 0.00 | 0.00 | 32 | 1005.5 |
| 20260504150745 | 65 | 262 | 7.0 | 15.0 | 0.00 | 0.00 | 0.00 | 35 | 1006.4 |
| 20260504150241 | 65 | 236 | 6.0 | 15.0 | 0.00 | 0.00 | 0.00 | 35 | 1006.6 |
| 20260504141140 | 63 | 255 | 6.0 | 14.0 | 0.00 | 0.00 | 0.00 | 37 | 1007.1 |
| 20260504140633 | 63 | 150 | 7.0 | 16.0 | 0.00 | 0.00 | 0.00 | 40 | 1007.0 |
| 20260504130541 | 59 | 267 | 5.0 | 9.0 | 0.00 | 0.00 | 0.00 | 44 | 1007.7 |
| 20260504110432 | 48 | 176 | 1.0 | 5.0 | 0.00 | 0.00 | 0.00 | 59 | 1008.6 |
| 20260504100320 | 46 | 220 | 1.0 | 5.0 | 0.00 | 0.00 | 0.00 | 60 | 1008.6 |
| 20260504081733 | 46 | 191 | 1.0 | 4.0 | 0.00 | 0.00 | 0.00 | 56 | 1008.4 |
| 20260504081234 | 46 | 225 | 1.0 | 4.0 | 0.00 | 0.00 | 0.00 | 56 | 1008.4 |
| 20260504080732 | 46 | 213 | 1.0 | 4.0 | 0.00 | 0.00 | 0.00 | 56 | 1008.4 |
| 20260504080231 | 46 | 213 | 0.0 | 2.0 | 0.00 | 0.00 | 0.00 | 56 | 1008.4 |
| 20260504070227 | 44 | 211 | 1.0 | 4.0 | 0.00 | 0.00 | 0.00 | 60 | 1008.3 |
| 20260504060218 | 43 | 208 | 1.0 | 3.0 | 0.00 | 0.00 | 0.00 | 63 | 1008.4 |
| 20260504050714 | 41 | 167 | 0.0 | 0.0 | 0.00 | 0.00 | 0.00 | 66 | 1008.3 |
| 20260504045709 | 41 | 193 | 0.0 | 1.0 | 0.00 | 0.00 | 0.00 | 66 | 1008.3 |
| 20260504045207 | 41 | 225 | 0.0 | 1.0 | 0.00 | 0.00 | 0.00 | 66 | 1008.3 |
| 20260504044707 | 41 | 181 | 0.0 | 1.0 | 0.00 | 0.00 | 0.00 | 65 | 1008.3 |
| 20260504044208 | 41 | 169 | 0.0 | 0.0 | 0.00 | 0.00 | 0.00 | 65 | 1008.3 |
| 20260504043703 | 42 | 168 | 0.0 | 0.0 | 0.00 | 0.00 | 0.00 | 64 | 1008.3 |
| 20260504043202 | 41 | 151 | 0.0 | 0.0 | 0.00 | 0.00 | 0.00 | 64 | 1008.3 |
| 20260504042702 | 41 | 163 | 0.0 | 0.0 | 0.00 | 0.00 | 0.00 | 64 | 1008.3 |